Probability
0 0 0 0 0 0 0 0 0 0 0 0 0 0 0 0 0 0 0 0 0 0 0 0 0 0 0 0 0 0 0 0 0 0 0 0 0 0
0 0 0 0 0 0 0 0 0 0 0 0 0 0 0 0 0 0 0 0 0 0 0 0 0 0 0 0 0 0 0 0 0 0 0 0 0 0
0 0 0 0 0 0 0 0 0 0 0 0 0 0 0 0 0 0 0 0 0 0 0 0 0 0 0 0 0 0 0 0 0 0 0 0 0 0
0 0 0 0 0 0 0 0 0 0 0 0 0 0 0 0 0 0 0 0 0 0 0 0 0 0 0 0 0 0 0 0 0 0 0 0 0 0
0 0 0 0 0 0 0 0 0 0 0 0 0 0 0 0 0 0 0 0 0 0 0 0 0 0 0 0 0 0 0 0 0 0 0 0 0 0
0 0 0 0 0 0 0 0 0 0 0 0 0 0 0 0 0 0 0 0 0 0 0 0 0 0 0 0 0 0 0 0 0 0 0 0 0 0
0 0 0 0 0 0 0 0 0 0 0 0 0 0 0 0 0 0 0 0 0 0 0 0 0 0 0 0 0 0 0 0 0 0 0 0 0 0
0 0 0 0 0 0 0 0 0 0 0 0 0 0 0 0 0 0 0 0 0 0 0 0 0 0 0 0 0 0 0 0 0 0 0 0 0 0
0 0 0 0 0 0 0 0 0 0 0 0 0 0 0 0 0 0 0 0 0 0 0 0 0 0 0 0 0 0 0 0 0 0 0 0 0 0
0 0 0 0 0 0 0 0 0 0 0 0 0 0 0 0 0 0 0 0 0 0 0 0 0 0 0 0 0 0 0 0 0 0 0 0 0 0
0 0 0 0 0 0 0 0 0 0 0 0 0 0 0 0 0 0 0 0 0 0 0 0 0 0 0 0 0 0 0 0 0 0 0 0 0 0
0 0 0 0 0 0 0 0 0 0 0 0 0 0 0 0 0 0 0 0 0 0 0 0 0 0 0 0 0 0 0 0 0 0 0 0 0 0
0 0 0 0 0 0 0 0 0 0 0 0 0 0 0 0 0 0 0 0 0 0 0 0 0 0 0 0 0 0 0 0 0 0 0 0 0 0
0 0 0 0 0 0 0 0 0 0 0 0 0 0 0 0 0 0 0 0 0 0 0 0 0 0 0 0 0 0 0 0 0 0 0 0 0 0
0 0 0 0 0 0 0 0 0 0 0 0 0 0 0 0 0 0 0 0 0 0 0 0 0 0 0 0 0 0 0 0 0 0 0 0 0 0
0 0 0 0 0 0 0 0 0 0 0 0 0 0 0 0 0 0 0 0 0 0 0 0 0 0 0 0 0 0 0 0 0 0 0 0 0 0
0 0 0 0 0 0 0 0 0 0 0 0 0 0 0 0 0 0 0 0 0 0 0 0 0 0 0 0 0 0 0 0 0 0 0 0 0 0
0 0 0 0 0 0 0 0 0 0 0 0 0 0 0 0 0 0 0 0 0 0 0 0 0 0 0 0 0 0 0 0 0 0 0 0 0 0
0 0 0 0 0 0 0 0 0 0 0 0 0 0 0 0 0 0 0 0 0 0 0 0 0 0 0 0 0 0 0 0 0 0 0 0 0 0
0 0 0 0 0 0 0 0 0 0 0 0 0 0 0 0 0 0 0 0 0 0 0 0 0 0 0 0 0 0 0 0 0 0 0 0 0 0
0 0 0 0 0 0 0 0 0 0 0 0 0 0 0 0 0 0 0 0 0 0 0 0 0 0 0 0 0 0 0 0 0 0 0 0 0 0
0 0 0 0 0 0 0 0 0 0 0 0 0 0 0 0 0 0 0 0 0 0 0 0 0 0 0 0 0 0 0 0 0 0 0 0 0 0
0 0 0 0 0 0 0 0 0 0 0 0 0 0 0 0 0 0 0 0 0 0 0 0 0 0 0 0 0 0 0 0 0 0 0 0 0 0
Height
5791 5788 5786 5783 5781 5778 5775 5772 5770 5766 5763 5760 5757 5754 5751 5747 5743 5739 5735 5730 5726 5721 5717 5712 5707 5702 5698 5693 5688 5683 5679 5674 5670 5666 5662 5658 5655 5651
5778 5775 5773 5770 5767 5765 5762 5758 5755 5752 5748 5745 5742 5739 5735 5732 5728 5723 5719 5715 5709 5704 5699 5695 5690 5685 5681 5676 5671 5666 5662 5657 5653 5648 5644 5639 5636 5632
5765 5762 5759 5756 5753 5750 5747 5744 5741 5738 5734 5730 5727 5723 5720 5716 5712 5707 5703 5698 5693 5689 5684 5679 5675 5670 5666 5661 5656 5651 5646 5641 5637 5632 5627 5623 5618 5615
5752 5748 5745 5742 5739 5735 5732 5729 5725 5722 5719 5714 5711 5707 5704 5700 5696 5692 5687 5683 5679 5674 5670 5665 5661 5656 5652 5647 5642 5637 5632 5627 5622 5617 5612 5608 5603 5599
5738 5734 5731 5727 5723 5720 5716 5713 5709 5706 5702 5698 5695 5691 5688 5684 5680 5676 5673 5668 5664 5660 5656 5652 5648 5644 5639 5635 5630 5625 5620 5615 5610 5605 5599 5594 5589 5585
5724 5720 5715 5711 5707 5704 5700 5696 5693 5689 5686 5682 5679 5675 5672 5669 5666 5662 5659 5655 5652 5648 5644 5641 5637 5633 5628 5624 5619 5614 5609 5603 5598 5593 5587 5582 5577 5572
5709 5704 5700 5695 5691 5687 5683 5679 5676 5673 5670 5667 5664 5661 5658 5655 5653 5649 5647 5643 5640 5638 5634 5631 5627 5623 5619 5614 5609 5604 5599 5593 5588 5582 5576 5570 5565 5560
5694 5689 5684 5679 5675 5671 5667 5664 5661 5658 5655 5653 5651 5648 5646 5644 5641 5639 5637 5634 5632 5629 5626 5622 5619 5615 5611 5606 5601 5596 5590 5584 5578 5572 5566 5560 5555 5549
5681 5676 5671 5666 5662 5658 5654 5651 5648 5646 5644 5642 5640 5638 5637 5635 5633 5631 5629 5627 5624 5622 5619 5615 5612 5608 5604 5599 5594 5589 5583 5577 5570 5564 5558 5552 5546 5541
5670 5665 5661 5656 5652 5648 5645 5642 5639 5637 5635 5634 5632 5630 5629 5627 5626 5624 5623 5620 5618 5616 5613 5610 5607 5603 5599 5594 5588 5583 5577 5571 5564 5558 5551 5545 5539 5534
5662 5657 5653 5650 5646 5642 5639 5636 5633 5632 5630 5628 5627 5625 5624 5623 5621 5620 5618 5616 5614 5611 5609 5606 5602 5598 5594 5589 5584 5578 5573 5566 5560 5553 5547 5541 5534 5528
5657 5653 5649 5646 5642 5639 5636 5633 5631 5629 5627 5625 5624 5623 5621 5620 5618 5617 5615 5613 5610 5608 5605 5602 5598 5594 5590 5586 5581 5575 5569 5563 5557 5551 5544 5537 5530 5524
5654 5650 5647 5644 5641 5638 5636 5633 5631 5628 5626 5625 5623 5621 5620 5618 5616 5614 5612 5610 5607 5605 5602 5599 5595 5591 5587 5583 5578 5573 5568 5562 5555 5549 5542 5535 5528 5522
5653 5650 5647 5644 5642 5639 5636 5634 5631 5629 5627 5625 5623 5621 5619 5617 5614 5612 5610 5607 5605 5602 5599 5596 5593 5589 5585 5581 5576 5572 5566 5561 5554 5548 5541 5534 5527 5520
5653 5651 5648 5645 5643 5640 5638 5635 5632 5630 5627 5625 5623 5620 5618 5616 5613 5611 5608 5606 5603 5600 5597 5595 5592 5588 5584 5580 5575 5571 5566 5560 5554 5548 5541 5534 5527 5520
5653 5651 5649 5646 5644 5641 5638 5635 5633 5630 5627 5625 5622 5620 5617 5615 5612 5609 5607 5604 5602 5599 5597 5594 5591 5588 5584 5580 5575 5571 5566 5561 5555 5548 5542 5535 5529 5522
5654 5652 5649 5646 5644 5641 5638 5636 5633 5630 5627 5624 5622 5619 5616 5614 5611 5609 5606 5604 5601 5599 5596 5594 5591 5587 5584 5580 5576 5571 5566 5561 5556 5550 5544 5537 5531 5525
5654 5652 5649 5647 5644 5641 5638 5635 5632 5629 5626 5624 5621 5618 5616 5613 5610 5608 5606 5603 5601 5599 5596 5594 5591 5588 5585 5581 5577 5573 5568 5563 5557 5552 5546 5540 5535 5529
5654 5652 5649 5646 5643 5640 5637 5634 5631 5628 5625 5623 5620 5617 5615 5612 5610 5608 5606 5603 5601 5599 5597 5594 5592 5589 5586 5582 5579 5575 5570 5565 5560 5555 5549 5544 5539 5533
5654 5651 5648 5645 5642 5639 5636 5633 5630 5627 5625 5622 5619 5617 5615 5612 5610 5608 5606 5604 5602 5600 5598 5595 5593 5590 5587 5584 5580 5577 5572 5568 5563 5558 5553 5548 5543 5538
5654 5651 5648 5645 5642 5639 5635 5632 5629 5627 5624 5621 5619 5617 5614 5612 5610 5608 5606 5605 5603 5601 5599 5597 5594 5592 5589 5586 5583 5579 5575 5571 5566 5562 5557 5553 5548 5543
5653 5650 5647 5644 5641 5638 5635 5632 5629 5626 5624 5621 5619 5617 5615 5612 5610 5609 5607 5606 5604 5602 5600 5598 5596 5593 5591 5588 5585 5582 5578 5575 5570 5566 5562 5558 5554 5549
5652 5650 5647 5644 5641 5638 5635 5632 5629 5626 5624 5621 5619 5617 5615 5613 5611 5610 5608 5607 5605 5604 5602 5600 5598 5596 5593 5591 5588 5585 5581 5578 5574 5571 5567 5563 5559 5555
Wind_Speed
39 40 41 41 42 43 44 45 47 48 49 51 52 53 55 56 58 60 61 62 64 66 66 67 67 67 67 67 67 66 66 65 65 66 66 66 65 65
43 44 44 45 46 47 48 49 49 51 52 53 54 56 58 60 61 62 63 64 64 64 64 64 65 64 62 62 61 59 59 59 59 60 60 60 60 59
46 46 46 47 48 49 50 51 52 53 55 55 56 58 59 60 61 61 61 61 61 60 60 60 60 59 58 57 57 57 56 55 55 55 55 55 55 55
47 47 48 48 50 51 52 53 54 55 55 57 57 58 58 58 58 57 57 57 56 56 56 55 54 53 53 54 53 52 51 50 50 50 50 50 51 51
48 49 50 51 51 52 52 53 54 54 54 54 54 54 54 54 54 54 53 52 51 51 50 49 49 48 48 47 46 45 45 46 46 46 46 46 46 47
49 50 51 51 51 52 52 52 52 52 52 51 51 51 51 51 50 49 48 47 46 45 45 44 43 42 41 40 40 41 42 42 42 42 42 42 42 42
48 49 49 50 50 50 50 50 50 50 49 47 47 47 46 45 43 42 41 41 40 39 38 37 36 36 36 36 36 36 37 37 38 38 38 38 38 37
45 46 46 45 45 44 44 44 43 42 42 42 41 40 38 37 35 34 33 33 32 31 30 30 30 30 30 30 31 32 33 33 33 33 33 33 33 33
42 41 39 38 37 36 36 36 35 35 34 34 32 31 30 29 28 28 27 27 26 25 25 25 25 26 26 27 27 27 28 29 29 30 30 30 29 29
33 32 31 30 29 28 27 27 27 26 25 24 24 23 22 22 22 22 21 21 20 20 20 20 22 22 23 24 24 24 25 26 26 26 26 26 26 27
27 25 24 23 21 21 20 19 19 18 17 16 16 16 17 16 16 16 16 16 16 17 18 18 19 21 21 22 21 22 23 24 24 24 25 25 25 25
21 19 18 17 15 15 14 13 12 12 11 11 11 12 12 12 12 13 14 14 15 15 16 17 17 18 19 20 20 21 22 23 24 24 24 24 24 24
17 15 13 12 12 12 11 11 10 10 10 9 10 10 11 11 12 12 13 13 14 14 15 15 16 17 18 18 19 20 21 22 23 24 24 24 23 23
13 12 11 11 11 11 11 11 11 10 10 10 10 11 11 12 12 12 13 13 14 14 15 15 15 16 17 18 19 20 20 21 23 24 24 24 23 23
11 11 10 10 11 11 11 11 11 11 11 11 11 12 12 12 12 13 13 14 14 14 14 14 15 15 16 17 18 19 20 21 22 23 24 25 24 24
10 10 10 10 10 11 12 12 12 12 12 12 12 12 13 13 13 13 13 13 13 13 13 13 14 15 15 17 18 19 20 21 22 23 23 24 24 23
10 10 10 11 11 11 12 12 12 12 13 13 13 13 13 13 13 13 13 12 13 13 13 13 13 14 15 17 18 19 20 21 22 23 23 24 25 25
10 11 11 11 11 12 12 12 13 13 13 13 13 13 13 13 13 12 12 12 12 12 12 12 13 14 15 16 18 19 20 21 22 23 24 24 25 26
10 12 12 12 12 12 13 13 13 14 13 13 12 12 13 12 12 12 12 12 12 12 12 12 13 14 15 16 18 19 20 21 22 23 24 24 25 26
11 12 12 13 13 13 13 14 14 13 13 12 12 12 12 12 11 11 11 11 11 11 11 11 12 13 15 16 17 19 20 21 22 23 23 24 25 25
11 12 13 13 13 14 14 14 14 13 12 12 12 12 12 11 11 10 10 11 11 11 11 11 12 13 14 15 17 18 19 21 22 22 23 24 25 25
12 13 13 14 14 14 14 14 13 12 12 12 12 12 11 10 10 10 10 10 10 11 11 12 12 13 14 15 16 17 19 20 21 22 23 23 24 24
12 13 14 14 14 14 14 14 13 12 12 12 11 11 10 10 9 9 9 9 9 10 11 11 12 13 14 15 16 17 19 20 21 22 23 24 24 25
Wind_Direction
289 288 287 285 283 282 281 281 281 279 278 278 277 277 277 278 277 277 277 277 277 279 281 281 281 281 281 283 283 284 284 284 284 283 283 283 283 281
289 288 286 284 283 282 282 281 280 280 278 277 277 277 278 278 278 278 278 279 280 281 282 283 283 284 285 285 285 286 286 287 286 286 285 284 283 281
288 287 286 284 283 282 282 281 279 279 278 278 278 278 278 278 278 278 279 280 281 282 283 284 285 286 287 287 288 289 289 289 290 289 287 286 284 282
288 287 287 286 284 283 281 281 280 279 279 279 279 278 278 278 278 278 280 281 282 283 284 286 287 288 289 290 291 291 291 291 290 289 288 287 287 285
289 288 287 286 285 283 282 282 281 280 280 279 279 279 279 279 280 281 282 283 284 286 287 288 289 290 291 292 293 292 292 291 291 291 290 289 288 286
290 289 287 286 285 284 283 281 280 280 280 279 279 280 280 281 283 283 285 286 287 288 290 291 292 292 293 294 294 295 295 294 293 293 292 292 291 290
292 290 289 287 286 284 283 281 280 280 280 280 280 281 282 283 284 285 287 288 290 292 293 293 294 295 296 297 298 300 300 299 299 298 297 296 295 294
294 293 291 290 289 287 284 283 282 282 282 282 283 284 285 286 287 288 289 291 292 294 295 296 297 299 301 302 304 306 306 306 305 305 304 302 301 299
297 296 295 295 293 292 290 288 286 285 285 284 284 286 287 288 288 289 291 293 294 296 297 299 302 305 308 310 312 314 315 316 315 313 312 310 309 307
302 302 302 301 301 300 298 296 294 292 291 290 289 289 289 289 291 293 295 298 299 300 302 305 309 312 316 319 321 322 325 326 326 324 322 320 318 316
312 312 311 310 310 310 309 306 303 301 299 298 297 297 296 297 301 303 305 306 307 309 312 315 318 321 325 329 332 333 335 335 336 335 333 330 328 326
322 321 321 321 323 326 326 326 324 322 320 317 315 313 312 313 315 316 316 316 317 319 321 323 326 329 334 337 340 342 344 344 344 343 342 340 339 338
334 336 339 345 349 352 352 351 349 345 341 338 333 329 328 327 326 325 325 324 326 328 330 332 334 338 342 345 347 349 350 351 351 351 351 350 348 346
349 353 356 359 360 360 1 1 359 355 352 348 345 342 340 337 335 334 334 334 334 336 337 340 343 347 350 352 354 356 358 359 360 359 359 358 357 355
356 357 359 1 2 2 2 1 1 359 356 352 349 346 342 340 341 342 342 342 343 343 345 348 350 353 357 0 2 3 3 4 4 5 6 6 6 5
357 359 359 359 359 358 356 355 355 355 354 352 349 346 345 344 345 346 348 349 351 352 354 356 358 0 4 6 6 6 6 7 8 9 10 11 12 14
356 355 355 354 354 354 352 350 351 351 351 350 347 348 349 350 350 351 353 355 356 358 0 3 5 6 8 9 10 11 12 12 13 13 15 17 20 22
354 353 352 351 351 348 347 349 349 347 346 346 347 350 352 354 355 357 358 360 1 3 5 8 10 11 12 13 15 16 15 15 17 19 21 23 26 28
351 351 350 349 347 345 346 347 348 348 347 348 352 354 356 357 358 1 3 4 6 9 12 15 15 15 16 17 19 19 20 21 23 25 28 29 30 32
351 351 350 349 348 347 346 347 349 350 351 352 355 358 0 1 4 5 6 8 11 14 18 19 19 20 21 22 23 23 24 25 27 29 31 33 35 37
352 352 353 353 352 350 350 351 352 354 357 358 360 0 1 5 9 10 10 13 16 20 23 24 25 26 27 27 27 26 27 29 30 32 33 35 37 39
353 355 356 356 356 356 356 358 359 1 2 3 3 3 4 9 16 18 17 18 21 23 25 28 29 30 31 31 32 32 32 33 35 37 38 40 41 43
355 356 357 359 360 1 1 2 3 3 4 4 6 8 11 17 23 24 23 24 26 27 27 30 33 34 34 35 35 36 37 38 39 41 42 44 46 47